Location: McFarlands Corners
(41.4117°N, 81.3382°W)
Time: 09:31:23
(UTC+00:00)

Vanguard 1 Rocket - Pass Details

Date: 22 February 2026
Orbit: 653 x 4214 km, 34.3° (Epoch: 8 March)

Event Time Altitude Azimuth Distance (km) Brightness Sun altitude
Rises 00:51:00 0° 279° (W) 6,504 13.4 -20.3°
Reaches altitude 10° 00:55:41 10° 269° (W) 5,958 12.7 -21.1°
Maximum altitude 01:11:15 29° 219° (SW) 5,591 11.6 -24.0°
Drops below altitude 10° 01:30:50 10° 170° (S) 7,370 11.8 -27.6°
Sets 01:37:53 0° 160° (SSE) 8,217 12.0 -28.9°
